CZ-6A DEB, 54453

Orbit data source: Space-Track

CZ-6A DEB, 54453 is space debris in SSO originally from a launch on Fri, 11 Nov 2022 UTC launched from the Taiyaun Space Center, China (TSC). Debris objects in space refer to the collection of defunct objects orbiting the Earth. Examples of debris include non-operational satellites, rocket bodies, and fragments generated from explosions, collisions, or faulty payload assembly.

Loading next visibility...
Identifier
54453, 2022-151GD
Orbit
SSO
Country
Flag of CNCN / PRC
Related business
Manufacturer
SAST
Mission
Spacecraft
Bus & Motor
Unknown
Mass
Unknown
Launch date (UTC)
2022-11-11 (4 years ago)
Launch vehicle
Unknown
Launch site
Taiyaun Space Center, China (TSC)
Object type
Payload
Rocket body
Debris
Shape & HBR
Unknown shape, 0.1 m
Radar Cross Section
Medium (>0.1 m² and <1 m²)

Expand to show TLE details & history
Last TLE update: 2 days ago

TLE from 2 days ago
0 CZ-6A DEB
1 54453U 22151GD  26170.97378357  .00001316  00000-0  70602-3 0  9996
2 54453  98.9095 182.6873 0080842 297.0409  62.2529 14.13140317184982
Epoch: 2026-06-19T23:22Z
TLE epoch observation values (Epoch: 2026-06-19T23:22:14.900Z)
Latitude
0.00001°
Longitude
-76.06986°
Altitude
824.711 km
Speed
7.454 km/s
True Right ascension
12h 10m 44s
True Declination
0° 00' 00"
Sunlit
Object was in daylight at epoch
Visualization orbit readout
Latitude
Unknown
Longitude
Unknown
Altitude
Unknown
Speed
Unknown
Apparent Right ascension
Unknown
Apparent Declination
Unknown
Sunlit
N/A
Visualization observer readout
Local Sidereal Time
21:33:12
Azimuth
Unknown
Elevation
Unknown
Doppler factor
Unknown
Orbital elements
Apogee altitude
904.223 km
Perigee altitude
787.423 km
Semi-major axis
7,223.96 km
Eccentricity
0.00808
Inclination
98.9095°
RAAN
182.6873°
Arg. of periapsis
297.0409°
True anomaly
63.0766°
Mean anomaly
62.2529°
Eccentric anomaly
62.66437°
Mean motion
3.53493 °/min
Orbital period
101.84 mins
BSTAR
0.00070602
Loading maneuver chart data...
Computing Atmospheric mass density...
Loading historical data...
Loading historical data...
Loading historical data...
Loading historical data...
Loading historical data...
Loading historical data...
Loading historical data...

Documentation

Showing up to 5 results
|